Lid_Strength_Index
3 4 4 4 5 5 6 6 9 4 4 8 7 10 10 9 8 6 7 7 8 9 9 10 10 10 8 5 6 9 8 10 13 10 8 7 8 11 10 13 13 12 12 12
3 4 4 4 5 5 7 9 8 4 5 11 11 10 10 8 9 8 8 8 7 7 9 12 9 8 6 6 7 9 8 11 15 12 10 8 10 9 9 9 10 14 13 11
3 3 3 4 5 5 7 9 10 7 7 8 11 12 10 10 8 8 7 7 6 8 9 8 10 9 7 6 6 6 7 11 13 15 12 10 11 10 9 9 13 12 11 10
3 3 3 4 5 5 7 8 10 9 10 9 10 10 10 10 11 7 6 8 8 9 11 10 11 9 8 6 6 6 8 12 10 9 9 9 10 10 9 10 9 12 10 10
3 3 3 4 4 5 7 10 10 8 10 10 10 11 11 10 10 9 9 9 8 8 11 10 12 10 9 11 7 8 7 13 10 11 9 9 10 9 9 9 9 9 9 9
3 3 4 3 4 5 7 7 9 11 11 11 11 10 11 10 9 8 7 7 8 9 8 6 6 6 6 7 10 10 10 11 12 14 10 10 13 10 9 9 8 8 10 8
4 4 4 4 4 5 6 8 8 12 13 12 12 11 11 10 9 10 7 6 7 6 3 4 4 5 6 7 9 8 12 12 13 15 14 19 11 8 9 10 9 8 8 7
5 4 4 4 4 4 5 4 9 11 14 11 11 11 11 9 8 9 7 6 4 3 5 8 10 10 10 9 8 9 9 12 14 16 16 12 10 10 12 13 12 8 8 7
5 5 5 5 4 4 3 4 4 9 12 10 10 11 10 11 10 9 7 4 3 4 7 9 13 14 13 13 11 8 9 10 14 14 18 19 14 10 7 9 15 9 8 8
6 5 5 5 5 5 4 5 2 6 11 9 9 11 11 9 9 11 9 7 6 4 9 12 13 13 10 14 15 13 12 12 15 15 17 14 10 8 8 16 14 8 8 8
6 6 6 5 5 5 5 5 3 6 9 9 8 7 9 9 8 12 8 8 7 8 11 11 11 12 11 12 10 12 14 15 15 14 16 19 7 9 13 9 8 8 7 7
6 6 6 6 5 5 5 7 3 3 7 8 5 5 5 6 5 8 8 8 7 7 10 10 10 12 10 11 14 8 13 11 14 14 14 8 7 8 8 7 8 7 7 6
6 6 6 6 5 6 5 6 4 5 8 8 6 6 4 3 3 3 9 7 5 6 5 8 10 12 9 13 11 10 8 7 11 11 9 8 8 7 6 6 7 6 5 6
7 6 6 6 6 6 6 6 4 5 7 11 7 3 4 2 2 3 3 3 2 3 5 8 10 12 8 11 9 10 8 7 9 11 9 8 7 7 6 6 6 6 5 5
6 6 5 5 5 5 5 6 6 5 8 10 9 5 3 3 2 3 3 4 5 6 8 9 10 8 9 9 9 9 6 8 11 13 8 9 8 7 7 7 7 6 6 5
6 6 5 5 5 5 6 9 5 5 5 10 11 4 5 3 3 3 4 4 6 7 7 8 7 5 8 12 12 6 5 4 5 8 6 7 7 7 7 8 7 6 7 6
6 5 5 5 5 5 8 7 6 4 5 9 11 9 4 4 3 4 5 5 6 6 7 8 8 7 7 10 11 6 5 4 4 4 5 7 7 9 8 9 7 7 7 6
5 5 5 5 5 5 7 5 4 4 7 8 11 9 6 3 6 7 4 6 6 6 7 7 8 6 7 11 7 5 5 4 4 4 4 6 7 8 9 9 8 9 9 8
6 6 6 4 5 8 5 3 3 4 7 10 9 10 10 3 4 4 6 6 10 6 9 8 6 8 11 8 7 5 5 5 5 4 4 6 8 9 9 10 10 10 10 10
6 6 6 7 6 6 4 5 7 8 8 8 9 6 9 5 5 5 6 7 10 12 8 5 9 9 5 5 4 3 4 4 4 5 6 6 8 9 10 10 10 9 10 11
8 10 10 7 5 5 6 7 8 9 10 8 8 7 9 4 8 8 4 8 8 12 9 9 10 10 6 5 4 3 4 3 3 3 3 4 6 9 10 10 10 9 10 11
8 8 8 8 8 7 9 9 7 8 9 6 7 6 6 6 4 7 7 11 8 11 5 9 11 7 5 4 4 4 4 3 3 3 3 4 5 8 9 9 10 10 9 9
7 10 11 10 9 12 12 12 10 10 7 6 7 9 7 7 5 7 9 11 10 5 9 10 7 5 4 4 4 4 3 3 3 3 3 4 5 6 8 9 10 10 10 9
11 12 13 12 11 10 8 7 8 7 6 7 7 8 8 7 9 9 11 8 7 11 12 11 6 5 4 4 3 3 4 3 3 3 3 4 5 6 7 9 9 10 11 10
12 11 14 11 7 6 6 5 6 5 4 6 7 7 8 11 11 9 9 11 13 11 11 7 5 4 4 4 3 3 3 3 3 3 3 4 5 5 7 8 9 10 11 11
11 11 12 9 9 7 7 6 6 4 5 6 6 8 11 11 10 12 12 12 14 11 7 5 4 4 4 3 3 3 3 3 3 2 2 3 4 5 5 7 8 10 10 11
12 11 8 8 7 6 5 5 5 5 6 7 7 10 12 9 12 13 9 12 8 6 5 4 3 3 4 3 3 3 3 3 3 2 2 3 4 3 4 6 7 8 9 11